Location: Altleiningen
(49.5078°N, 8.0741°E)
Time: 05:08:08
(UTC+00:00)

BREEZE-M DEB (TANK) - Pass Details

Date: 03 March 2021
Orbit: 308 x 15403 km, 49.5° (Epoch: 11 April)

Event Time Altitude Azimuth Distance (km) Brightness Sun altitude
Rises 19:46:20 0° 279° (W) 2,190 6.7 -25.2°
Reaches altitude 10° 19:47:41 10° 278° (W) 1,529 5.6 -25.4°
Enters shadow 19:50:12 71° 251° (WSW) 673 2.7 -25.7°
